QPF
0.03 0.02 0.02 0.01 0.02 0.02 0.03 0.05 0.02 0.00 0.00 0.03 0.04 0.08 0.12 0.01 0.00 0.00 0.00 0.00 0.00 0.00 0.00 0.00 0.00 0.00 0.00 0.00 0.00 0.00 0.00 0.00 0.00 0.00 0.00 0.00 0.00 0.00 0.00 0.00 0.00 0.00 0.00 0.00 0.00
0.04 0.04 0.01 0.04 0.03 0.04 0.05 0.06 0.02 0.01 0.03 0.04 0.07 0.08 0.08 0.00 0.00 0.00 0.00 0.00 0.00 0.00 0.00 0.00 0.00 0.00 0.00 0.00 0.00 0.00 0.00 0.00 0.00 0.00 0.00 0.00 0.00 0.00 0.00 0.00 0.00 0.00 0.00 0.00 0.00
0.03 0.05 0.04 0.07 0.09 0.12 0.11 0.05 0.03 0.03 0.03 0.01 0.07 0.12 0.05 0.00 0.00 0.00 0.00 0.00 0.00 0.00 0.00 0.00 0.00 0.00 0.00 0.00 0.00 0.00 0.00 0.00 0.00 0.00 0.00 0.00 0.00 0.00 0.00 0.00 0.00 0.00 0.00 0.00 0.00
0.03 0.05 0.08 0.08 0.06 0.05 0.02 0.00 0.00 0.00 0.00 0.03 0.12 0.15 0.04 0.00 0.00 0.00 0.00 0.00 0.00 0.00 0.00 0.00 0.00 0.00 0.00 0.00 0.00 0.00 0.00 0.00 0.00 0.00 0.00 0.00 0.00 0.00 0.00 0.00 0.00 0.00 0.00 0.00 0.00
0.02 0.03 0.04 0.05 0.03 0.00 0.00 0.00 0.01 0.03 0.09 0.08 0.12 0.10 0.00 0.00 0.00 0.00 0.00 0.00 0.00 0.00 0.00 0.00 0.00 0.00 0.00 0.00 0.00 0.00 0.00 0.00 0.00 0.00 0.00 0.00 0.00 0.00 0.00 0.00 0.00 0.00 0.00 0.00 0.00
0.01 0.01 0.01 0.02 0.02 0.02 0.03 0.04 0.05 0.04 0.02 0.05 0.06 0.01 0.00 0.00 0.00 0.00 0.00 0.00 0.00 0.00 0.00 0.00 0.00 0.00 0.00 0.00 0.00 0.00 0.00 0.00 0.00 0.00 0.00 0.00 0.00 0.00 0.00 0.00 0.00 0.00 0.00 0.00 0.00
0.00 0.00 0.00 0.01 0.02 0.04 0.06 0.07 0.04 0.01 0.00 0.00 0.00 0.00 0.00 0.00 0.00 0.00 0.00 0.00 0.00 0.00 0.00 0.00 0.00 0.00 0.00 0.00 0.00 0.00 0.00 0.00 0.00 0.00 0.00 0.00 0.00 0.00 0.00 0.00 0.00 0.00 0.00 0.00 0.00
0.00 0.00 0.00 0.01 0.00 0.00 0.02 0.04 0.06 0.04 0.00 0.00 0.00 0.00 0.00 0.00 0.00 0.00 0.00 0.00 0.00 0.00 0.00 0.00 0.00 0.00 0.00 0.00 0.00 0.00 0.00 0.00 0.00 0.00 0.00 0.00 0.00 0.00 0.00 0.00 0.00 0.00 0.00 0.00 0.00
0.00 0.00 0.00 0.00 0.00 0.00 0.00 0.00 0.02 0.04 0.01 0.00 0.00 0.00 0.01 0.00 0.00 0.00 0.00 0.00 0.00 0.00 0.00 0.00 0.00 0.00 0.00 0.00 0.00 0.00 0.00 0.00 0.00 0.00 0.00 0.00 0.00 0.00 0.00 0.00 0.00 0.00 0.00 0.00 0.00
0.00 0.00 0.00 0.00 0.00 0.00 0.00 0.00 0.00 0.00 0.00 0.00 0.00 0.00 0.00 0.00 0.00 0.00 0.00 0.00 0.00 0.00 0.00 0.00 0.00 0.00 0.00 0.00 0.00 0.00 0.00 0.00 0.00 0.00 0.00 0.00 0.00 0.00 0.00 0.00 0.00 0.00 0.00 0.00 0.00
0.00 0.00 0.00 0.00 0.00 0.00 0.00 0.00 0.00 0.00 0.00 0.00 0.00 0.00 0.00 0.00 0.00 0.00 0.00 0.00 0.00 0.00 0.00 0.00 0.00 0.00 0.00 0.00 0.00 0.00 0.00 0.00 0.00 0.00 0.00 0.00 0.00 0.00 0.00 0.00 0.00 0.00 0.00 0.00 0.00
0.00 0.00 0.00 0.00 0.00 0.00 0.00 0.00 0.00 0.00 0.00 0.00 0.00 0.00 0.00 0.00 0.00 0.00 0.00 0.00 0.00 0.00 0.00 0.00 0.00 0.00 0.00 0.00 0.00 0.00 0.00 0.00 0.00 0.00 0.00 0.00 0.00 0.00 0.00 0.00 0.00 0.00 0.00 0.00 0.00
0.00 0.00 0.00 0.00 0.00 0.00 0.00 0.00 0.00 0.00 0.00 0.00 0.00 0.00 0.00 0.00 0.00 0.00 0.00 0.00 0.00 0.00 0.00 0.00 0.00 0.00 0.00 0.00 0.00 0.00 0.00 0.00 0.00 0.00 0.00 0.00 0.00 0.00 0.00 0.00 0.00 0.00 0.00 0.00 0.00
0.00 0.00 0.00 0.00 0.00 0.00 0.00 0.00 0.00 0.00 0.00 0.00 0.00 0.00 0.00 0.00 0.00 0.00 0.00 0.00 0.00 0.00 0.00 0.00 0.00 0.00 0.00 0.00 0.00 0.00 0.00 0.00 0.00 0.00 0.00 0.00 0.00 0.00 0.00 0.00 0.00 0.00 0.00 0.00 0.00
0.00 0.00 0.00 0.00 0.00 0.00 0.00 0.00 0.00 0.00 0.00 0.00 0.00 0.00 0.00 0.00 0.00 0.00 0.00 0.00 0.00 0.00 0.00 0.00 0.00 0.00 0.00 0.00 0.00 0.00 0.00 0.00 0.00 0.00 0.00 0.00 0.00 0.00 0.00 0.00 0.00 0.00 0.00 0.00 0.00
0.00 0.00 0.00 0.00 0.00 0.00 0.00 0.00 0.00 0.00 0.00 0.00 0.00 0.00 0.00 0.00 0.00 0.00 0.00 0.00 0.00 0.00 0.00 0.00 0.00 0.00 0.00 0.00 0.00 0.00 0.00 0.00 0.00 0.00 0.00 0.00 0.00 0.00 0.00 0.00 0.00 0.00 0.00 0.00 0.00
0.00 0.00 0.00 0.00 0.00 0.00 0.00 0.00 0.00 0.00 0.00 0.00 0.00 0.00 0.00 0.00 0.00 0.00 0.00 0.00 0.00 0.00 0.00 0.00 0.00 0.00 0.00 0.00 0.00 0.00 0.00 0.00 0.00 0.00 0.00 0.00 0.00 0.00 0.00 0.00 0.00 0.00 0.00 0.00 0.00
0.00 0.00 0.00 0.00 0.00 0.00 0.00 0.00 0.00 0.00 0.00 0.00 0.00 0.00 0.00 0.00 0.00 0.00 0.00 0.00 0.00 0.00 0.00 0.00 0.00 0.00 0.00 0.00 0.00 0.00 0.00 0.00 0.00 0.00 0.00 0.00 0.00 0.00 0.00 0.00 0.00 0.00 0.00 0.00 0.00
0.00 0.00 0.00 0.00 0.00 0.00 0.00 0.00 0.00 0.00 0.00 0.00 0.00 0.00 0.00 0.00 0.00 0.00 0.00 0.00 0.00 0.00 0.00 0.00 0.00 0.00 0.00 0.00 0.00 0.00 0.00 0.00 0.00 0.00 0.00 0.00 0.00 0.00 0.00 0.00 0.00 0.00 0.00 0.00 0.00
0.00 0.00 0.00 0.00 0.00 0.00 0.00 0.00 0.00 0.00 0.00 0.00 0.00 0.00 0.00 0.00 0.00 0.00 0.00 0.00 0.00 0.00 0.00 0.00 0.00 0.00 0.00 0.00 0.00 0.00 0.00 0.00 0.00 0.00 0.00 0.00 0.00 0.00 0.00 0.00 0.00 0.00 0.00 0.00 0.00
0.00 0.00 0.00 0.00 0.00 0.00 0.00 0.00 0.00 0.00 0.00 0.00 0.00 0.00 0.00 0.00 0.00 0.00 0.00 0.00 0.00 0.00 0.00 0.00 0.00 0.00 0.00 0.00 0.00 0.00 0.00 0.00 0.00 0.00 0.00 0.00 0.00 0.00 0.00 0.00 0.00 0.00 0.00 0.00 0.00
0.00 0.00 0.00 0.00 0.00 0.00 0.00 0.00 0.00 0.00 0.00 0.00 0.00 0.00 0.00 0.00 0.00 0.00 0.00 0.00 0.00 0.00 0.00 0.00 0.00 0.00 0.00 0.00 0.00 0.00 0.00 0.00 0.00 0.00 0.00 0.00 0.00 0.00 0.00 0.00 0.00 0.00 0.00 0.00 0.00
0.00 0.00 0.00 0.00 0.00 0.00 0.00 0.00 0.00 0.00 0.00 0.00 0.00 0.00 0.00 0.00 0.00 0.00 0.00 0.00 0.00 0.00 0.00 0.00 0.00 0.00 0.00 0.00 0.00 0.00 0.00 0.00 0.00 0.00 0.00 0.00 0.00 0.00 0.00 0.00 0.00 0.00 0.00 0.00 0.00
0.00 0.00 0.00 0.00 0.00 0.00 0.00 0.00 0.00 0.00 0.00 0.00 0.00 0.00 0.00 0.00 0.00 0.00 0.00 0.00 0.00 0.00 0.00 0.00 0.00 0.00 0.00 0.00 0.00 0.00 0.00 0.00 0.00 0.00 0.00 0.00 0.00 0.00 0.00 0.00 0.00 0.00 0.00 0.00 0.00
0.00 0.00 0.00 0.00 0.00 0.00 0.00 0.00 0.00 0.00 0.00 0.00 0.00 0.00 0.00 0.00 0.00 0.00 0.00 0.00 0.00 0.00 0.00 0.00 0.00 0.00 0.00 0.00 0.00 0.00 0.00 0.00 0.00 0.00 0.00 0.00 0.00 0.00 0.00 0.00 0.00 0.00 0.00 0.00 0.00
0.00 0.00 0.00 0.00 0.00 0.00 0.00 0.00 0.00 0.00 0.00 0.00 0.00 0.00 0.00 0.00 0.00 0.00 0.00 0.00 0.00 0.00 0.00 0.00 0.00 0.00 0.00 0.00 0.00 0.00 0.00 0.00 0.00 0.00 0.00 0.00 0.00 0.00 0.00 0.00 0.00 0.00 0.00 0.00 0.00
0.00 0.00 0.00 0.00 0.00 0.00 0.00 0.00 0.00 0.00 0.00 0.00 0.00 0.00 0.00 0.00 0.00 0.00 0.00 0.00 0.00 0.00 0.00 0.00 0.00 0.00 0.00 0.00 0.00 0.00 0.00 0.00 0.00 0.00 0.00 0.00 0.00 0.00 0.00 0.00 0.00 0.00 0.00 0.00 0.00
MSLP
1012.18 1011.59 1010.75 1010.25 1010.00 1009.94 1010.09 1010.20 1010.31 1010.51 1010.96 1011.47 1011.06 1012.03 1012.38 1013.26 1013.85 1014.11 1014.55 1014.56 1014.26 1014.10 1014.12 1014.15 1014.20 1014.19 1014.49 1015.16 1015.50 1015.81 1017.05 1018.02 1017.91 1017.47 1017.27 1016.89 1016.74 1016.75 1016.60 1016.59 1016.41 1016.11 1016.32 1016.44 1016.53
1012.13 1010.71 1009.42 1008.82 1009.18 1009.33 1009.47 1009.76 1010.00 1010.32 1010.73 1010.88 1011.15 1011.92 1011.72 1013.10 1013.38 1014.30 1014.97 1014.29 1014.23 1014.29 1014.31 1014.48 1014.54 1014.49 1015.27 1015.71 1016.08 1016.57 1017.66 1017.98 1017.93 1017.72 1017.54 1017.35 1017.22 1017.24 1017.10 1017.13 1016.85 1016.55 1016.69 1016.77 1016.84
1011.77 1011.20 1010.06 1009.24 1008.52 1008.52 1008.58 1009.52 1009.95 1010.46 1010.46 1009.94 1010.84 1012.07 1012.00 1012.33 1013.13 1015.54 1015.39 1014.83 1014.56 1014.55 1014.71 1014.79 1014.66 1014.83 1015.82 1016.14 1016.67 1017.11 1017.80 1017.95 1018.14 1017.95 1017.80 1017.82 1017.78 1017.66 1017.48 1017.36 1017.07 1016.92 1016.99 1017.03 1017.16
1012.88 1011.85 1011.09 1010.26 1009.74 1009.35 1009.31 1009.54 1009.79 1010.04 1010.44 1011.39 1011.92 1012.69 1012.86 1012.76 1015.19 1016.16 1015.87 1015.33 1014.56 1014.57 1014.74 1014.80 1015.02 1015.68 1016.44 1016.83 1016.99 1017.54 1017.99 1018.04 1018.29 1018.30 1018.19 1018.29 1018.28 1018.15 1017.99 1017.21 1017.04 1017.17 1017.26 1017.18 1017.29
1013.78 1012.91 1012.16 1011.42 1010.98 1010.46 1010.13 1010.14 1010.56 1011.07 1011.35 1011.39 1011.82 1012.79 1012.79 1014.62 1016.60 1016.52 1015.99 1015.39 1014.70 1014.70 1015.00 1015.16 1015.62 1016.07 1016.81 1017.15 1017.36 1017.86 1018.22 1018.35 1018.49 1018.57 1018.48 1018.58 1018.66 1018.64 1017.98 1017.44 1017.37 1017.35 1017.35 1017.39 1017.39
1014.81 1014.09 1013.17 1012.56 1012.21 1011.83 1011.54 1011.55 1011.69 1011.98 1012.41 1012.54 1012.73 1012.96 1013.43 1015.91 1017.37 1016.99 1016.43 1015.55 1015.06 1014.93 1015.43 1015.69 1016.10 1016.17 1017.10 1017.56 1017.84 1018.17 1018.39 1018.75 1018.69 1018.69 1018.80 1018.95 1018.87 1018.74 1017.78 1017.40 1017.44 1017.48 1017.49 1017.48 1017.51
1015.87 1015.23 1014.44 1013.85 1013.51 1013.15 1012.93 1012.87 1012.86 1012.99 1012.92 1013.35 1013.32 1013.25 1015.01 1017.77 1017.58 1016.91 1016.41 1015.91 1015.44 1015.35 1015.97 1016.34 1016.27 1016.56 1017.33 1017.95 1018.36 1018.58 1018.90 1019.15 1019.11 1019.04 1019.22 1019.39 1019.41 1018.63 1017.95 1017.99 1017.92 1017.89 1017.91 1017.79 1017.56
1016.64 1016.07 1015.48 1015.17 1014.82 1014.40 1014.10 1013.99 1014.05 1013.98 1014.15 1013.89 1013.87 1014.47 1017.45 1017.59 1017.34 1017.04 1016.46 1016.19 1015.82 1015.83 1016.19 1016.42 1016.49 1017.11 1018.00 1018.48 1018.91 1019.22 1019.54 1019.76 1019.54 1019.54 1019.76 1019.99 1019.32 1018.18 1018.31 1018.43 1018.68 1018.53 1018.34 1018.32 1018.43
1017.49 1016.93 1016.37 1015.90 1015.78 1015.57 1015.13 1015.16 1015.23 1015.15 1015.29 1014.68 1015.19 1016.21 1018.80 1017.99 1017.66 1017.46 1017.00 1016.89 1016.59 1016.48 1016.55 1016.55 1017.01 1018.52 1018.98 1019.52 1020.20 1020.35 1020.34 1020.11 1019.87 1019.72 1019.88 1020.20 1019.59 1018.53 1018.25 1018.54 1018.77 1018.75 1018.73 1018.68 1018.72
1018.03 1017.57 1017.20 1016.69 1016.17 1015.73 1015.92 1015.77 1016.08 1016.18 1016.10 1016.29 1017.49 1018.14 1020.33 1019.95 1018.83 1018.08 1017.21 1017.00 1017.19 1017.16 1017.46 1017.93 1018.94 1019.67 1020.34 1020.42 1020.82 1020.65 1020.44 1020.07 1019.92 1019.95 1020.06 1020.33 1019.75 1019.25 1018.52 1018.84 1018.85 1019.11 1019.31 1019.33 1019.16
1018.15 1017.93 1017.33 1017.02 1016.55 1015.94 1016.10 1016.61 1017.02 1017.55 1017.35 1018.27 1019.07 1019.50 1020.20 1019.48 1018.91 1018.10 1017.67 1017.48 1017.62 1017.99 1019.04 1019.68 1020.51 1020.96 1021.08 1020.71 1020.45 1020.38 1020.38 1020.25 1020.11 1020.14 1020.34 1020.17 1020.08 1018.84 1018.56 1018.60 1019.08 1019.55 1019.75 1019.65 1019.40
1018.52 1018.01 1017.71 1017.43 1017.25 1016.83 1016.84 1017.76 1018.61 1018.84 1018.92 1019.44 1019.51 1019.90 1019.93 1019.74 1019.08 1018.37 1017.75 1018.06 1018.33 1019.21 1019.76 1020.71 1021.57 1021.44 1021.08 1020.78 1020.56 1020.55 1020.67 1020.77 1020.51 1020.43 1020.57 1020.30 1019.87 1018.64 1018.15 1018.32 1018.92 1019.65 1019.95 1019.72 1019.38
1018.80 1018.27 1017.77 1017.68 1017.50 1017.87 1018.45 1018.81 1018.83 1018.78 1019.36 1020.36 1020.63 1020.20 1020.35 1019.90 1019.58 1019.01 1018.57 1018.63 1019.22 1019.93 1020.58 1021.22 1021.85 1021.36 1021.01 1020.97 1020.91 1021.21 1021.14 1021.28 1021.53 1021.31 1021.14 1020.97 1019.83 1019.22 1019.03 1019.07 1019.46 1019.88 1019.91 1019.73 1019.45
1018.88 1018.60 1018.11 1017.47 1017.99 1018.36 1018.79 1018.95 1018.86 1018.77 1019.95 1021.41 1020.74 1020.35 1019.99 1019.71 1019.51 1019.13 1018.99 1019.34 1019.79 1020.76 1021.23 1021.91 1021.84 1021.51 1021.24 1021.31 1021.26 1021.46 1021.61 1021.80 1022.13 1022.53 1022.93 1022.56 1022.07 1020.22 1019.29 1019.47 1019.63 1019.86 1019.82 1019.55 1019.29
1018.89 1018.59 1018.38 1018.06 1018.47 1018.70 1019.12 1018.87 1018.93 1019.37 1020.75 1022.23 1021.04 1020.05 1019.93 1020.00 1020.04 1019.50 1019.21 1019.29 1020.14 1020.73 1021.31 1022.34 1021.90 1021.68 1021.53 1021.60 1021.32 1021.63 1021.80 1022.23 1022.78 1023.47 1024.11 1023.86 1023.89 1020.33 1019.60 1019.32 1019.30 1019.37 1019.34 1019.26 1018.95
1018.99 1018.70 1018.51 1018.49 1018.90 1019.05 1018.94 1018.99 1019.34 1020.17 1023.06 1022.43 1021.24 1020.54 1020.33 1020.23 1020.20 1019.92 1019.71 1019.72 1020.40 1020.93 1021.45 1021.97 1021.79 1021.77 1021.64 1021.48 1021.39 1021.54 1021.99 1022.68 1023.36 1024.21 1024.86 1024.09 1023.94 1020.88 1019.66 1018.83 1018.81 1018.93 1018.96 1018.79 1018.66
1018.98 1018.76 1018.60 1018.55 1018.96 1018.79 1019.01 1019.55 1020.39 1022.55 1024.21 1023.13 1022.08 1021.24 1020.87 1020.89 1020.69 1020.56 1020.58 1020.74 1021.20 1021.76 1022.48 1022.34 1022.18 1021.80 1021.54 1021.52 1021.51 1021.83 1022.71 1023.88 1024.86 1025.41 1024.95 1024.03 1023.95 1020.09 1018.60 1018.25 1018.24 1018.28 1018.31 1018.37 1018.40
1018.84 1018.73 1018.76 1018.66 1018.61 1018.80 1019.44 1019.93 1022.00 1023.85 1023.27 1022.49 1022.01 1021.60 1021.48 1021.23 1021.07 1021.01 1021.14 1021.40 1021.37 1021.58 1022.45 1022.74 1022.67 1022.00 1021.71 1021.68 1021.85 1022.01 1022.78 1024.33 1025.53 1026.36 1025.23 1023.94 1022.37 1018.91 1017.87 1017.59 1017.62 1017.78 1017.96 1018.08 1018.04
1018.64 1018.97 1018.94 1018.75 1018.70 1018.81 1019.80 1021.00 1022.77 1022.83 1022.28 1021.74 1021.45 1021.47 1021.52 1021.31 1021.27 1021.10 1021.20 1021.48 1021.55 1021.57 1022.07 1022.39 1022.35 1021.93 1021.73 1021.51 1021.83 1022.19 1022.95 1023.91 1024.98 1026.01 1025.72 1023.22 1020.98 1018.36 1017.87 1017.63 1017.56 1017.58 1017.75 1017.69 1017.63
1019.06 1019.18 1019.00 1018.60 1018.63 1019.17 1020.14 1022.18 1022.51 1021.92 1021.57 1021.43 1021.28 1021.10 1021.36 1021.27 1021.27 1021.24 1021.31 1021.31 1021.37 1021.48 1021.66 1022.10 1022.43 1022.11 1021.90 1021.78 1022.18 1022.42 1023.22 1023.95 1024.96 1025.82 1025.25 1022.80 1021.05 1018.75 1017.78 1017.07 1017.05 1017.27 1017.26 1017.19 1017.19
1019.50 1019.46 1019.04 1018.65 1018.90 1019.52 1022.17 1022.60 1021.96 1021.45 1021.30 1021.17 1020.87 1020.79 1020.69 1020.72 1020.96 1021.10 1021.25 1021.30 1021.23 1021.51 1021.64 1021.90 1022.62 1022.74 1022.39 1022.13 1022.11 1022.86 1023.24 1023.88 1024.49 1024.68 1024.49 1023.20 1019.28 1016.75 1016.30 1016.07 1016.17 1016.30 1016.46 1016.56 1016.66
1020.28 1020.37 1019.21 1019.06 1019.62 1021.27 1022.25 1021.75 1021.53 1021.24 1020.98 1020.75 1020.66 1020.55 1020.36 1020.47 1020.58 1020.75 1020.88 1020.88 1021.00 1021.39 1021.84 1021.97 1022.54 1023.03 1022.41 1021.65 1021.63 1022.09 1022.49 1023.09 1023.70 1023.76 1023.32 1022.59 1018.81 1015.53 1015.41 1015.39 1015.68 1015.68 1015.71 1015.80 1015.84
1021.15 1020.68 1019.52 1019.32 1020.46 1022.05 1021.92 1021.52 1021.00 1021.00 1020.87 1020.69 1020.50 1020.18 1019.96 1020.22 1020.48 1020.52 1020.62 1020.55 1020.70 1021.13 1021.55 1022.05 1022.80 1023.21 1022.59 1022.19 1021.85 1021.89 1021.85 1022.10 1022.52 1022.50 1022.06 1021.84 1017.45 1015.22 1015.01 1015.09 1015.04 1015.18 1015.07 1015.08 1015.19
1021.29 1021.43 1020.72 1020.53 1021.08 1021.13 1021.44 1021.29 1021.03 1020.48 1020.32 1020.28 1020.27 1020.20 1020.29 1020.40 1020.38 1020.43 1020.49 1020.57 1020.66 1020.97 1021.43 1022.19 1023.10 1023.27 1022.73 1021.80 1021.49 1021.56 1021.07 1021.18 1021.55 1021.69 1020.78 1018.66 1016.41 1014.76 1014.71 1014.60 1014.31 1014.32 1014.17 1014.18 1014.39
1021.60 1022.31 1022.30 1022.10 1021.80 1021.52 1021.31 1020.88 1020.81 1020.63 1020.49 1020.21 1020.22 1020.09 1020.18 1020.40 1020.51 1020.73 1020.69 1020.93 1021.16 1021.34 1021.91 1022.43 1023.05 1023.08 1022.58 1022.01 1021.61 1020.93 1020.44 1020.30 1020.14 1019.54 1019.55 1016.39 1015.87 1013.13 1013.61 1013.62 1013.40 1013.23 1013.09 1013.21 1013.28
1021.81 1022.22 1022.40 1022.26 1021.85 1021.39 1021.22 1021.06 1020.53 1020.24 1020.34 1020.35 1020.20 1019.78 1020.01 1020.04 1019.76 1020.06 1020.31 1020.95 1021.21 1021.86 1022.27 1022.72 1023.09 1023.12 1022.44 1021.28 1020.93 1020.18 1019.22 1018.97 1018.66 1018.19 1017.38 1016.27 1014.55 1011.90 1012.15 1012.52 1012.58 1012.58 1012.52 1012.41 1012.30
1021.89 1021.85 1021.98 1022.19 1022.01 1021.80 1020.90 1020.20 1019.94 1019.93 1019.58 1019.49 1019.74 1019.96 1019.92 1019.51 1019.49 1019.59 1019.82 1020.06 1020.42 1021.26 1022.37 1022.83 1023.26 1023.59 1022.53 1021.48 1020.47 1018.48 1015.68 1015.60 1016.16 1016.02 1015.64 1015.46 1011.79 1011.33 1011.50 1011.60 1011.49 1011.42 1011.45 1011.41 1011.28
Thickness
5465 5463 5463 5459 5456 5456 5459 5464 5469 5478 5499 5521 5549 5556 5559 5559 5567 5579 5584 5595 5609 5619 5627 5635 5642 5649 5651 5649 5654 5655 5632 5631 5641 5651 5654 5666 5669 5669 5676 5677 5683 5689 5690 5693 5694
5478 5483 5483 5479 5469 5465 5464 5464 5467 5480 5499 5524 5538 5552 5554 5555 5568 5571 5577 5593 5603 5612 5620 5627 5632 5640 5635 5640 5641 5636 5623 5636 5643 5646 5652 5656 5658 5660 5666 5663 5673 5680 5682 5683 5684
5494 5490 5492 5491 5491 5489 5489 5486 5490 5500 5511 5533 5539 5543 5550 5561 5563 5556 5570 5585 5596 5607 5615 5622 5630 5633 5627 5633 5633 5636 5626 5635 5638 5642 5647 5650 5652 5655 5660 5661 5665 5671 5674 5676 5678
5496 5497 5496 5498 5500 5502 5504 5505 5508 5512 5518 5521 5533 5537 5540 5549 5541 5546 5561 5576 5594 5603 5610 5618 5623 5620 5617 5621 5630 5623 5630 5634 5633 5636 5642 5643 5646 5647 5653 5662 5669 5670 5669 5672 5673
5498 5500 5500 5503 5504 5506 5510 5512 5512 5513 5518 5525 5529 5527 5539 5529 5528 5540 5557 5575 5589 5601 5605 5610 5613 5614 5609 5616 5624 5620 5624 5628 5630 5632 5637 5639 5640 5642 5646 5656 5660 5662 5665 5665 5668
5496 5498 5502 5504 5503 5505 5507 5508 5509 5510 5511 5514 5519 5527 5536 5525 5519 5534 5552 5572 5586 5596 5597 5603 5607 5614 5608 5611 5614 5618 5620 5620 5626 5630 5632 5632 5635 5637 5650 5655 5656 5658 5659 5661 5662
5495 5496 5500 5501 5500 5501 5501 5501 5502 5502 5507 5504 5513 5525 5520 5507 5519 5536 5552 5567 5580 5591 5592 5598 5605 5609 5609 5607 5611 5612 5614 5614 5617 5622 5623 5624 5626 5631 5644 5644 5646 5650 5651 5653 5656
5496 5496 5498 5498 5498 5499 5499 5496 5495 5498 5498 5503 5510 5518 5503 5513 5523 5535 5549 5561 5573 5583 5588 5593 5598 5599 5599 5602 5601 5602 5598 5599 5610 5613 5615 5617 5617 5638 5637 5638 5636 5638 5643 5646 5645
5493 5496 5496 5497 5495 5494 5495 5491 5488 5493 5496 5505 5510 5512 5498 5514 5523 5531 5542 5553 5566 5576 5583 5591 5593 5585 5588 5582 5573 5581 5572 5596 5604 5607 5610 5610 5614 5630 5635 5632 5631 5632 5636 5638 5636
5495 5497 5496 5496 5496 5496 5490 5491 5486 5488 5493 5498 5495 5500 5488 5499 5514 5528 5544 5554 5559 5570 5573 5576 5567 5567 5564 5563 5558 5583 5587 5596 5601 5604 5604 5602 5605 5615 5626 5625 5627 5624 5622 5622 5623
5504 5499 5501 5499 5497 5500 5494 5489 5485 5484 5492 5486 5488 5490 5492 5506 5518 5532 5542 5550 5558 5561 5556 5560 5542 5529 5566 5575 5580 5586 5589 5592 5596 5600 5598 5596 5600 5615 5619 5620 5615 5611 5608 5608 5612
5510 5509 5506 5503 5500 5496 5493 5488 5482 5483 5486 5489 5494 5496 5501 5508 5521 5531 5542 5546 5550 5545 5555 5539 5534 5558 5567 5573 5577 5581 5581 5578 5589 5593 5594 5595 5600 5614 5619 5619 5608 5598 5596 5598 5601
5518 5517 5516 5511 5508 5499 5493 5487 5490 5496 5490 5491 5492 5500 5504 5514 5520 5528 5538 5543 5542 5539 5541 5534 5547 5559 5565 5565 5569 5565 5571 5572 5573 5578 5585 5584 5590 5599 5605 5597 5594 5587 5588 5590 5593
5529 5525 5524 5522 5514 5509 5502 5498 5500 5507 5482 5488 5502 5507 5517 5521 5526 5533 5538 5541 5541 5533 5536 5535 5546 5552 5559 5558 5562 5563 5564 5568 5568 5552 5543 5569 5541 5579 5601 5594 5589 5580 5577 5582 5584
5539 5535 5532 5528 5521 5516 5512 5511 5512 5511 5477 5496 5504 5516 5521 5524 5528 5533 5542 5544 5539 5544 5542 5532 5543 5546 5548 5552 5559 5558 5561 5562 5561 5555 5520 5548 5506 5569 5591 5596 5588 5582 5578 5578 5577
5550 5544 5542 5539 5530 5525 5523 5521 5519 5496 5453 5482 5513 5518 5523 5526 5530 5536 5540 5544 5543 5542 5539 5540 5545 5546 5548 5552 5556 5559 5558 5554 5554 5542 5500 5546 5527 5561 5558 5590 5587 5576 5573 5574 5572
5563 5557 5551 5548 5540 5538 5534 5527 5505 5467 5489 5494 5508 5520 5524 5525 5531 5534 5535 5533 5525 5512 5527 5531 5539 5544 5548 5548 5552 5553 5536 5488 5500 5487 5517 5551 5515 5566 5586 5581 5583 5581 5574 5571 5567
5576 5570 5562 5555 5554 5547 5539 5526 5489 5489 5499 5517 5520 5521 5522 5527 5532 5534 5534 5526 5536 5537 5515 5502 5507 5542 5546 5548 5546 5555 5543 5491 5494 5492 5504 5541 5536 5567 5588 5584 5579 5574 5570 5567 5566
5587 5579 5573 5568 5562 5559 5541 5500 5496 5507 5524 5527 5529 5526 5521 5529 5532 5534 5536 5533 5538 5540 5527 5531 5526 5545 5547 5551 5549 5549 5529 5539 5521 5490 5500 5510 5543 5579 5578 5577 5572 5569 5569 5566 5566
5591 5584 5583 5579 5572 5561 5542 5525 5529 5538 5539 5537 5534 5537 5530 5532 5531 5534 5536 5539 5540 5542 5542 5540 5525 5543 5545 5547 5541 5543 5537 5531 5514 5512 5510 5519 5524 5560 5558 5578 5577 5571 5570 5569 5568
5592 5590 5589 5587 5580 5565 5527 5531 5547 5548 5544 5542 5542 5544 5542 5543 5540 5538 5538 5539 5542 5540 5542 5544 5518 5531 5539 5535 5532 5526 5531 5527 5515 5518 5531 5529 5549 5570 5584 5593 5589 5580 5577 5573 5572
5588 5583 5593 5590 5571 5547 5535 5561 5556 5555 5553 5551 5550 5551 5551 5550 5547 5545 5544 5545 5543 5540 5537 5542 5535 5510 5535 5548 5545 5538 5535 5525 5508 5516 5526 5540 5562 5598 5594 5594 5585 5583 5581 5576 5571
5583 5582 5593 5592 5562 5551 5565 5568 5568 5561 5559 5558 5558 5562 5563 5557 5553 5555 5553 5554 5550 5547 5543 5541 5518 5497 5533 5544 5547 5546 5543 5541 5536 5539 5547 5514 5553 5597 5594 5589 5584 5578 5576 5574 5571
5583 5569 5578 5579 5571 5572 5572 5573 5569 5570 5570 5569 5566 5565 5562 5559 5559 5558 5557 5556 5555 5553 5551 5545 5525 5527 5525 5554 5549 5544 5551 5548 5547 5543 5543 5559 5573 5594 5588 5585 5586 5580 5577 5574 5572
5577 5575 5569 5558 5574 5578 5577 5572 5575 5570 5569 5570 5569 5567 5565 5561 5559 5555 5558 5555 5553 5553 5546 5541 5526 5514 5529 5537 5542 5548 5552 5553 5548 5562 5548 5579 5577 5605 5594 5589 5588 5589 5584 5578 5574
5579 5575 5565 5562 5572 5582 5576 5570 5576 5578 5569 5569 5569 5572 5563 5563 5566 5561 5563 5554 5550 5544 5539 5534 5530 5533 5529 5546 5546 5543 5552 5554 5561 5566 5567 5576 5587 5613 5609 5604 5589 5586 5585 5580 5576
5571 5572 5570 5566 5564 5567 5570 5582 5581 5579 5582 5581 5572 5572 5569 5569 5570 5569 5565 5566 5564 5548 5537 5533 5526 5520 5525 5537 5539 5556 5587 5583 5570 5565 5575 5566 5606 5614 5607 5601 5598 5599 5595 5588 5582